RH
14 13 14 15 15 14 14 14 15 16 18 20 21 21 22 21 20 22 24 24 25 23 23 30 28 32 32 35 38 40 48 51 50 43 47 78 79 60 71 62 71 79 75 74 72
15 14 14 14 14 14 14 14 14 15 16 18 20 21 22 22 22 22 24 24 23 24 27 29 30 32 36 35 43 43 40 45 67 71 79 92 86 77 81 74 73 82 85 81 82
15 15 15 15 15 14 14 13 13 14 15 17 18 20 21 22 24 26 24 25 25 25 28 28 29 32 34 36 39 41 42 51 62 57 61 88 84 80 82 81 68 74 84 79 80
15 15 15 15 15 14 14 14 13 14 14 16 18 18 19 21 26 25 24 26 27 26 29 31 31 35 36 34 35 39 38 45 54 49 56 74 72 78 81 81 77 73 76 82 73
14 13 13 13 14 14 15 14 12 13 14 15 16 17 18 22 23 23 25 27 28 28 30 33 36 39 38 34 36 32 32 36 36 41 46 50 61 66 72 76 78 78 75 77 72
15 14 13 13 13 14 13 12 12 12 13 14 15 17 20 21 21 23 26 27 30 30 31 35 40 40 39 37 36 37 31 31 29 29 29 35 45 54 61 68 74 78 75 74 75
20 18 16 15 15 14 13 12 11 12 12 13 15 17 21 18 18 22 26 29 30 33 34 34 39 39 45 40 38 34 33 28 25 23 22 20 24 34 49 58 65 69 74 73 75
29 26 22 18 16 15 15 14 13 12 12 12 14 19 20 17 18 20 27 31 31 34 36 37 36 38 42 44 38 38 36 30 27 22 21 21 18 20 24 35 48 49 58 68 73
33 32 30 24 21 17 16 16 15 14 13 13 15 21 20 18 18 23 29 32 33 36 37 39 39 39 44 43 42 42 34 33 28 25 23 24 17 19 24 26 29 38 37 48 66
37 34 34 32 27 24 21 19 18 18 18 20 22 23 17 19 23 24 28 31 35 38 41 41 42 41 44 44 50 41 39 31 33 31 29 25 22 20 23 26 24 25 31 35 46
39 36 35 36 35 32 29 28 30 29 27 20 22 19 21 22 24 28 29 30 34 38 42 45 44 44 44 47 44 39 39 38 32 34 33 27 23 23 23 22 23 22 25 29 33
40 40 38 37 37 37 36 39 38 36 31 26 20 22 22 25 28 31 31 33 35 38 43 45 45 40 40 43 44 44 41 40 39 38 35 30 25 20 19 19 16 15 16 20 27
48 47 46 44 41 44 45 44 43 42 40 32 32 29 29 26 26 30 33 34 37 39 41 45 43 41 43 44 45 45 42 43 42 41 36 33 29 23 19 17 16 15 13 14 18
59 58 56 54 54 51 51 54 50 49 58 49 48 47 42 41 34 33 39 38 39 40 42 43 40 42 45 46 46 49 45 44 46 47 48 41 41 25 20 19 18 15 14 13 12
70 73 71 71 64 65 65 64 65 64 71 56 51 50 53 50 55 49 49 50 44 43 44 45 44 45 46 46 49 49 50 48 49 54 49 40 48 28 22 18 18 19 18 16 14
37 39 45 60 71 70 78 74 73 72 73 61 60 61 59 56 59 62 60 55 54 51 47 41 43 43 45 49 48 51 55 55 56 58 64 38 39 29 23 22 20 21 22 20 18
3 3 3 4 19 30 37 47 63 73 49 50 57 64 67 66 66 64 64 61 56 60 51 43 38 41 44 51 54 55 63 73 74 74 55 47 38 28 22 22 21 21 21 22 24
5 5 4 4 7 18 30 40 46 32 30 32 37 44 57 60 62 70 71 67 59 59 59 53 53 46 45 47 54 61 64 66 68 62 55 55 52 33 25 24 23 22 22 23 23
8 8 7 7 9 17 31 44 33 29 26 26 33 39 40 42 50 69 66 61 59 60 64 51 52 51 50 52 59 67 71 61 76 64 69 46 40 34 31 26 26 26 26 25 25
14 14 14 14 15 25 34 37 33 30 29 30 33 30 38 39 45 54 56 55 64 59 60 58 62 60 59 62 63 67 62 81 83 79 70 52 45 48 39 35 33 30 30 30 32
21 19 24 22 31 39 40 34 32 32 34 32 29 33 30 34 44 45 42 47 52 56 66 72 71 73 68 66 62 72 74 72 71 66 70 61 53 48 51 46 41 38 37 35 37
19 16 22 24 41 41 41 37 39 40 36 34 33 31 35 35 41 45 44 45 48 55 65 69 72 69 68 63 66 72 68 66 74 67 69 72 73 48 47 50 46 41 43 43 45
26 20 14 22 34 38 39 43 45 49 49 43 41 39 40 41 44 40 40 43 45 53 58 66 68 69 66 72 72 72 70 70 70 72 82 95 78 48 47 48 53 54 50 48 48
42 33 29 37 34 58 60 49 52 58 60 54 51 51 53 52 49 43 47 53 53 49 60 65 62 59 58 58 67 75 68 69 72 79 73 73 71 56 55 56 57 62 61 58 51
54 48 55 38 49 59 59 63 69 64 73 72 65 78 75 63 56 53 51 52 62 58 60 72 69 62 56 57 66 78 79 73 75 75 91 73 74 64 69 66 64 68 63 59 51
62 62 66 56 51 44 37 38 54 71 72 63 85 76 86 88 87 84 78 75 70 72 63 64 73 68 63 56 63 66 66 69 68 70 72 71 71 68 64 61 57 57 58 58 57
73 71 72 61 60 59 55 50 49 47 50 69 79 77 74 80 86 93 92 85 85 83 76 75 60 60 66 51 64 75 46 56 57 53 55 58 55 58 59 56 55 58 60 53 58